www.pogodaiklimat.ru

Погода и климат >> Архив погоды >> Нигер >> Ниамей


ПОГОДА в Ниамее

  • Прогноз погоды в Ниамее
  • Монитор погоды в Ниамее

АРХИВ ПОГОДЫ в Ниамее

Время (UTC), дата Ветер
(напр.,м/с)
 
Видим.   Явления Облачность Т
(С)
Тd
(С)
f
(%)
Тe
(С)
Тes
(С)
Комфортность P
(гПа)
Po
(гПа)
Тmin
(С)
Tmax
(С)
R
(мм)
R24
(мм)
S
(см)
18 18.06 Ю 6 15 км 6/1 1500 м
[Cu hum Ci sp]
+39.4 +17.4 28 +42 +42 опасность
перегрева
1008.4 984.1 +40.8
21 18.06 ЮЗ 4 10 км 6/0
[Ci sp]
+37.0 +19.2 35 +42 +42 опасность
перегрева
1009.9 985.6
00 19.06 ЮЗ 8 10 км 6/0
[Ci sp]
+34.4 +21.7 48 +43 +43 опасность
перегрева
1010.7 986.4
03 19.06 З 4 8000 м зарница 9/3 1200 м
[Cb cap Ac cast Ci sp]
+32.6 +22.5 55 +42 +42 опасность
перегрева
1009.7 985.5
06 19.06 Ю 14 10 км гроза, ливневой дождь 10/3 1200 м
[Cb cap Ac As]
+23.0 +22.1 95 +31 +31 очень
душно
1013.0 988.3 +22.8 17
09 19.06 З 10 10 км {гроза, дождь} 9/0
[Ac As Ci sp]
+27.8 +21.3 68 +35 +36 очень
душно
1011.2 986.7
12 19.06 С 6 6000 м {гроза, дождь} 9/0
[Cs]
+36.4 +20.3 39 +42 +49 опасность
перегрева
1009.8 985.6 0.8
15 19.06 Ю 8 12 км 8/1 1000 м
[Cu hum Ac cast Ci sp]
+38.0 +20.6 37 +44 +46 опасность
перегрева
1007.8 983.6
18 19.06 Ю 6 12 км 6/0
[Ac cast Ci sp]
+35.6 +19.7 39 +41 +41 опасность
перегрева
1008.9 984.2 +38.0 0.8
21 19.06 Ю 4 10 км 6/0
[Ci sp]
+33.0 +22.4 54 +42 +42 опасность
перегрева
1010.1 985.5
00 20.06 ЮЗ 10 10 км 6/0
[Ci sp]
+31.0 +23.2 63 +41 +41 опасность
перегрева
1009.8 985.4
03 20.06 Ю 8 10 км 6/0
[Ci sp]
+30.0 +21.2 59 +38 +38 очень
душно
1008.7 984.4
06 20.06 ЮЗ 8 10 км 6/0
[Ci sp]
+29.0 +21.7 65 +37 +37 очень
душно
1009.8 985.3 +28.5 0.8
09 20.06 ЮЗ 12 12 км 6/0
[Ci sp]
+34.0 +19.0 41 +39 +39 очень
душно
1010.3 985.9
12 20.06 ЮЗ 12 12 км 6/0
[Ci sp]
+38.0 +18.9 33 +42 +42 опасность
перегрева
1009.5 985.2
15 20.06 Ю 12 15 км 6/1 1200 м
[Cu hum Ci sp]
+40.0 +19.5 31 +45 +45 опасность
перегрева
1007.3 983.1
18 20.06 Ю 8 10 км 6/1 1200 м
[Cu med, cong Ci sp]
+37.8 +20.7 37 +44 +44 опасность
перегрева
1007.2 982.9 +41.0
21 20.06 Ю 10 12 км 6/0
[Ci sp]
+34.0 +19.0 41 +39 +39 очень
душно
1009.6 985.3
00 21.06 ЮЗ 10 12 км 6/0
[Ci sp]
+32.4 +23.3 59 +43 +43 опасность
перегрева
1010.4 986.1
03 21.06 ЮЗ 8 12 км 6/0
[Ci sp]
+31.0 +23.3 64 +42 +42 опасность
перегрева
1009.6 985.4
06 21.06 ЮЗ 12 12 км 6/0
[Ci sp]
+30.0 +23.7 69 +41 +41 опасность
перегрева
1010.8 986.4 +29.9
09 21.06 ЮЗ 16 12 км 6/0
[Ci sp]
+33.0 +21.4 51 +41 +41 опасность
перегрева
1011.7 987.3
12 21.06 Ю 10 10 км 6/0
[Ci sp]
+37.0 +19.2 35 +42 +42 опасность
перегрева
1010.8 986.5
15 21.06 Ю 8 15 км 6/1 1200 м
[Cu hum Ci sp]
+38.0 +18.6 32 +42 +43 опасность
перегрева
1009.4 985.1
18 21.06 ЮЗ 10 10 км 6/0
[Ci sp]
+37.2 +19.7 36 +42 +42 опасность
перегрева
1008.6 984.2 +38.8
21 21.06 Ю 6 10 км 6/0
[Ci sp]
+33.2 +21.2 49 +41 +41 опасность
перегрева
1010.3 985.9
00 22.06 ЮЗ 4 10 км 6/0
[Ci sp]
+33.4 +21.4 49 +41 +41 опасность
перегрева
1010.6 926.3
03 22.06 З 8 10 км 6/0
[Ci sp]
+32.2 +22.1 55 +41 +41 опасность
перегрева
1010.2 985.9
06 22.06 ЮВ 20 6000 м гроза, ливневой дождь 10/3 1200 м
[Cb cap Ac As]
+23.8 +21.4 86 +30 +30 очень
душно
1013.5 988.8 +23.6 1
09 22.06 Ю 14 10 км 9/1 1200 м
[Cb cap Ac As]
+27.0 +17.3 55 +31 +31 душно 1013.8 989.0
12 22.06 Ю 14 10 км 9/0
[Ac trans Cs]
+35.7 +15.6 30 +37 +37 душно 1009.5 985.2 0.0
15 22.06 Ю 4 10 км 9/0
[Ac trans Cs]
+38.0 +15.4 26 +39 +45 очень
душно
1008.0 983.8
18 22.06 Ю 10 10 км 9/0
[Cs]
+32.2 +19.0 46 +38 +38 очень
душно
1008.7 983.9 +38.5 0.0
21 22.06 ЮЗ 8 12 км 6/0
[Ci sp]
+30.0 +21.2 59 +38 +38 очень
душно
1010.7 985.9
00 23.06 ЮЗ 6 12 км 6/0
[Ci sp]
+28.7 +21.8 66 +37 +37 очень
душно
1009.8 985.3 0.0
03 23.06 ЮЗ 6 12 км 6/0
[Ci sp]
+27.6 +21.7 70 +35 +35 очень
душно
1009.2 984.8
06 23.06 ЮЗ 6 12 км 6/0
[Ci sp]
+26.5 +22.3 78 +35 +35 очень
душно
1010.6 985.9 +26.0 0.0
09 23.06 ЮЗ 12 15 км 3/0
[Ci sp]
+30.2 +21.8 61 +39 +39 очень
душно
1011.5 986.8
12 23.06 З 10 15 км 3/0
[Ci sp]
+35.0 +19.2 40 +40 +41 очень
душно
1010.0 985.5
15 23.06 ЮЗ 10 15 км 3/0
[Ci sp]
+37.0 +21.1 40 +44 +45 опасность
перегрева
1007.3 982.9
18 23.06 ЮЗ 6 15 км 3/0
[Ci sp]
+36.4 +19.6 37 +41 +41 опасность
перегрева
1006.9 982.4 +37.6
21 23.06 ЮЗ 8 10 км 3/0
[Ci sp]
+33.8 +21.6 49 +42 +42 опасность
перегрева
1009.1 984.6
00 24.06 ЮЗ 10 10 км 3/0
[Ci sp]
+31.6 +20.4 52 +39 +39 очень
душно
1009.1 984.7
03 24.06 ЮЗ 8 10 км 3/0
[Ci sp]
+30.5 +22.0 61 +39 +39 очень
душно
1008.4 984.1
06 24.06 ЮЗ 8 10 км 3/0
[Ac trans Ci sp]
+27.5 +23.8 80 +38 +38 очень
душно
1008.5 984.0 +27.4
09 24.06 ЮЗ 10 10 км 6/0
[Ci sp]
+33.0 +22.1 53 +42 +42 опасность
перегрева
1009.0 984.6
12 24.06 З 10 15 км 6/0
[Ci sp]
+37.5 +20.9 38 +44 +45 опасность
перегрева
1007.5 983.2
15 24.06 Ю 4 12 км 6/3 1000 м
[Cu med, cong Ci sp]
+39.0 +21.2 36 +46 +51 опасность
перегрева
1005.8 981.6
18 24.06 З 8 12 км в посл. час гроза 9/1 1200 м
[Cb cap Ac cast Ci sp]
+32.6 +21.6 52 +41 +41 опасность
перегрева
1006.7 982.1 +40.0
21 24.06 З 4 10 км 8/0
[Ac cast Ci sp]
+32.0 +21.2 53 +40 +40 очень
душно
1007.5 983.1
00 25.06 З 8 10 км 6/0
[Ci sp]
+30.5 +22.9 64 +40 +40 очень
душно
1007.5 983.2
03 25.06 З 6 10 км 6/0
[Ci sp]
+30.0 +22.8 65 +40 +40 очень
душно
1007.5 983.2
06 25.06 ЮЗ 10 10 км 6/0
[Ci sp]
+27.5 +19.4 61 +33 +33 очень
душно
1009.9 985.2 +27.5
09 25.06 ЮЗ 12 12 км 6/0
[Ci sp]
+29.0 +19.7 57 +35 +35 очень
душно
1011.9 987.2
12 25.06 ЮЗ 10 10 км 6/0
[Ci sp]
+34.0 +18.3 39 +38 +39 очень
душно
1010.1 985.6

 

Местоположение метеостанции Ниамей (Нигер): широта 13.48 долгота 2.17 высота над уровнем моря 227 м.

В архиве по умолчанию представлена погода в Ниамее за последнюю неделю. Архивные данные за месяц целиком и за предыдущие месяцы, начиная с января 2011 года, Вы можете получить, выбрав интересующий диапазон дат из раскрывающегося списка и нажав кнопку "Ввод!".


*Определитесь, кто Вы:
робот инопланетянин человек

Внимание! Время в таблицах - всемирное. Для получения местного времени необходимо прибавить поправку, которая равна 1 ч.

Смотрите также архив погоды в соседних городах и на ближайших метеорологических станциях:

Погода в Тиллабери (Нигер) (112 км)
Погода в Досо (Нигер) (123 км)
Погода в Гае (Нигер) (226 км)
Погода в Дори (Буркина-Фасо) (245 км)
Погода в Фада-Нгурме (Буркина-Фасо) (253 км)
Погода в Канди (Бенин) (274 км)
Погода в Вирнин-Конни (Нигер) (335 км)
Погода в Дапаоне (Того) (351 км)
Погода в Натитингу (Бенин) (362 км)
Погода в Тахве (Нигер) (368 км)

Пояснения к столбцам:

Ветер - указаны скорость ветра в м/с - средняя за 10 мин, порывы в срок и между сроками (в фигурных скобках) и направление, откуда дует ветер: С - северный, СВ - северо-восточный, В - восточный, ЮВ - юго-восточный, Ю - южный, ЮЗ - юго-западный, З - западный, СЗ - северо-западный.
Видимость - горизонтальная дальность видимости в метрах или километрах. При видимости от 1 до 10 км при отсутствии осадков обычно наблюдается дымка, при ухудшении видимости до 1 км и менее - туман. В сухую погоду видимость может ухудшаться дымом, пылью или мглою.
Явления - указаны атмосферные явления, наблюдавшиеся в срок или в последний час перед сроком; фигурными скобками обозначены явления, наблюдавшиеся между сроками (за 1-3 часа до срока); квадратными скобками обозначены град или гололедные отложения с указанием их диаметра в мм.
Облачность - указаны через наклонную черту общая и нижняя облачность в баллах и высота нижней границы облаков в метрах; квадратными скобками обозначены формы облаков: Ci - перистые, Cs - перисто-слоистые, Cc - перисто-кучевые, Ac - высококучевые, As - высокослоистые, Sc - слоисто-кучевые, Ns - слоисто-дождевые, Cu - кучевые, Cb - кучево-дождевые. Подробнее классификацию облаков см. в Атласе облаков (PDF).
T - Температура воздуха - температура, измеренная на высоте 2 м над землей.
Td - Температура точки росы - температура, при понижении до которой содержащийся в воздухе водяной пар достигнет насыщения.
f - Относительная влажность воздуха - влажноcть воздуха, измеренная на высоте 2 м над землей.
Te - Эффективная температура - температура, которую ощущает одетый по сезону человек в тени. Характеристика душности погоды. При расчете учитывается влияние влажности воздуха и скорости ветра на теплоощущения человека.
Tes - Эффективная температура на солнце - температура, которую ощущает человек, с поправкой на солнечный нагрев. Характеристика знойности погоды. Зависит от высоты солнца над горизонтом, облачности и скорости ветра. Ночью, в пасмурную погоду, а также при ветре 12 м/с и более поправка равна нулю.
P - Атмосферное давление - приведенное к уровню моря атмосферное давление.
Po - Атмосферное давление - измеренное на уровне метеостанции атмосферное давление.
Tmin - Минимальная температура - минимум температуры воздуха на высоте 2 м над землей.
Tmax - Максимальная температура - максимум температуры воздуха на высоте 2 м над землей.
R - Количество осадков - Количество выпавших осадков за период времени, мм. При наведении курсора мыши на число - период времени, за который выпало указанное количество осадков.
R24 - Количество осадков - Количество выпавших осадков за 24 часа, мм.
S - Снежный покров - Высота снежного покрова, см. При наведении курсора мыши на число - состояние снежного покрова и степень покрытия местности в баллах.